Weather History for KBCE - November, 2013

Change the Weather History Date:

Tuesday, November 5, 2013

  Actual Average Record
Temperature  
Mean Temperature 22 °F -  
Max Temperature 35 °F 51 °F 64 °F (1980)
Min Temperature 10 °F 22 °F 8 °F (1959)
Degree Days  
Heating Degree Days 42    
Moisture  
Dew Point 13 °F    
Average Humidity 66    
Maximum Humidity 88    
Minimum Humidity 38    
Precipitation  
Precipitation 0.00 in - - ()
Sea Level Pressure  
Sea Level Pressure 30.19 in    
Wind  
Wind Speed 9 mph (NNW)    
Max Wind Speed 16 mph    
Max Gust Speed 22 mph    
Visibility 10 miles    
Events      
Averages and records for this station are not official NWS values.
T = Trace of Precipitation, MM = Missing Value Source: NWS Daily Summary

Daily Weather History Graph

Daily Weather History Graph

Search for Another Location

Airport or City:

Trip Planner

Search our weather history database for the weather conditions in past years. The results will help you decide how hot, cold, wet, or windy it might be!

Date:

Astronomy

Nov. 05, 2013 Rise Set
Actual Time 6:58 AM MST 5:25 PM MST
Civil Twilight 6:30 AM MST 5:52 PM MST
Nautical Twilight 5:59 AM MST 6:24 PM MST
Astronomical Twilight 5:29 AM MST 6:54 PM MST
Moon 9:15 AM MST (11/5) 7:32 PM MST (11/5)
Length of Visible Light 11h 22m
Length of Day
10h 27m
Waxing Crescent, 7% of the Moon is Illuminated
Nov 5
Waxing Crescent
Nov 9
First Quarter
Nov 17
Full
Nov 25
Last Quarter
Dec 2
New

Hourly Weather History & Observations

Time (MST) Temp. Windchill Dew Point Humidity Pressure Visibility Wind Dir Wind Speed Gust Speed Precip Events Conditions
12:53 AM 18.0 °F 6.9 °F 15.1 °F 88% 29.99 in 10.0 mi NW 9.2 mph - N/A   Clear
1:53 AM 21.0 °F 8.6 °F 12.9 °F 71% 30.01 in 10.0 mi NNW 12.7 mph - N/A   Clear
2:53 AM 18.0 °F 7.7 °F 12.9 °F 81% 30.02 in 10.0 mi NNW 8.1 mph - N/A   Clear
3:53 AM 16.0 °F 5.3 °F 10.9 °F 81% 30.04 in 10.0 mi NW 8.1 mph - N/A   Clear
4:53 AM 17.1 °F 7.6 °F 10.9 °F 77% 30.08 in 10.0 mi NNW 6.9 mph - N/A   Clear
5:53 AM 10.9 °F 4.7 °F 8.1 °F 88% 30.15 in 10.0 mi West 3.5 mph - N/A   Clear
6:53 AM 10.9 °F 2.9 °F 7.0 °F 84% 30.17 in 10.0 mi West 4.6 mph - N/A   Clear
7:53 AM 18.0 °F 9.8 °F 12.9 °F 81% 30.16 in 10.0 mi NNE 5.8 mph - N/A   Clear
8:53 AM 23.0 °F 13.1 °F 15.1 °F 72% 30.17 in 10.0 mi NE 9.2 mph - N/A   Clear
9:53 AM 25.0 °F 12.2 °F 14.0 °F 63% 30.19 in 10.0 mi NE 16.1 mph - N/A   Clear
10:53 AM 28.0 °F 17.5 °F 15.1 °F 58% 30.19 in 10.0 mi NNE 12.7 mph 18.4 mph N/A   Clear
11:53 AM 30.9 °F 24.3 °F 15.1 °F 52% 30.17 in 10.0 mi NNW 6.9 mph 18.4 mph N/A   Clear
12:53 PM 33.1 °F 24.9 °F 10.0 °F 38% 30.16 in 10.0 mi North 10.4 mph 17.3 mph N/A   Clear
1:53 PM 34.0 °F 26.0 °F 12.0 °F 40% 30.14 in 10.0 mi NNE 10.4 mph 17.3 mph N/A   Clear
2:53 PM 35.1 °F 26.4 °F 12.0 °F 39% 30.17 in 10.0 mi NNE 12.7 mph 21.9 mph N/A   Clear
3:53 PM 34.0 °F 23.8 °F 12.9 °F 42% 30.20 in 10.0 mi NE 16.1 mph - N/A   Clear
4:04 PM 33.8 °F 24.3 °F 12.2 °F 41% 30.22 in 10.0 mi NNE 13.8 mph - N/A   Clear
4:53 PM 30.9 °F 21.2 °F 10.9 °F 43% 30.23 in 10.0 mi NNE 12.7 mph - N/A   Clear
5:53 PM 26.1 °F 17.6 °F 12.9 °F 58% 30.31 in 10.0 mi North 8.1 mph - N/A   Clear
6:53 PM 24.1 °F 14.4 °F 16.0 °F 71% 30.34 in 10.0 mi NNW 9.2 mph - N/A   Clear
7:53 PM 21.9 °F 17.2 °F 14.0 °F 72% 30.34 in 10.0 mi NW 3.5 mph - N/A   Clear
8:53 PM 21.9 °F 13.4 °F 12.9 °F 68% 30.32 in 10.0 mi NW 6.9 mph - N/A   Clear
9:53 PM 19.9 °F 10.1 °F 14.0 °F 78% 30.34 in 10.0 mi West 8.1 mph - N/A   Clear
10:53 PM 17.1 °F 11.7 °F 12.9 °F 84% 30.34 in 10.0 mi NNW 3.5 mph - N/A   Clear
11:53 PM 17.1 °F - 12.0 °F 81% 30.33 in 10.0 mi Calm Calm - N/A   Clear